www.pogodaiklimat.ru
ПОГОДА в Бекабаде

Архив погоды в Бекабаде (Ташкентская область, Узбекистан)

Время
и дата
02:00 17.04
02:10 17.04
02:20 17.04
02:30 17.04
02:40 17.04
02:50 17.04
03:00 17.04
03:10 17.04
03:20 17.04
03:30 17.04
03:40 17.04
03:50 17.04
04:00 17.04
04:10 17.04
04:20 17.04
04:30 17.04
04:40 17.04
04:50 17.04
05:00 17.04
05:10 17.04
05:20 17.04
05:30 17.04
05:40 17.04
05:50 17.04
06:00 17.04
06:10 17.04
06:20 17.04
06:30 17.04
06:40 17.04
06:50 17.04
07:00 17.04
07:10 17.04
07:20 17.04
08:30 17.04
08:50 17.04
10:40 17.04
16:20 17.04
16:40 17.04
16:50 17.04
17:00 17.04
17:10 17.04
17:20 17.04
17:30 17.04
17:40 17.04
17:50 17.04
18:00 17.04
18:10 17.04
18:20 17.04
18:30 17.04
18:40 17.04
18:50 17.04
19:00 17.04
19:10 17.04
19:20 17.04
19:30 17.04
19:40 17.04
19:50 17.04
20:00 17.04
20:10 17.04
20:30 17.04
20:40 17.04
20:50 17.04
21:00 17.04
21:10 17.04
21:20 17.04
21:30 17.04
21:40 17.04
21:50 17.04
22:00 17.04
22:10 17.04
22:20 17.04
22:30 17.04
22:40 17.04
22:50 17.04
23:10 17.04
23:20 17.04
23:30 17.04
23:40 17.04
23:50 17.04
00:20 18.04
00:30 18.04
00:40 18.04
01:20 18.04
01:30 18.04
01:40 18.04
02:00 18.04
02:10 18.04
02:20 18.04
02:30 18.04
02:40 18.04
02:50 18.04
03:00 18.04
03:10 18.04
03:20 18.04
03:30 18.04
03:50 18.04
04:00 18.04
04:10 18.04
04:20 18.04
04:40 18.04
04:50 18.04
05:00 18.04
05:40 18.04
06:00 18.04
06:10 18.04
06:20 18.04
06:40 18.04
06:50 18.04
07:00 18.04
07:20 18.04
07:40 18.04
07:50 18.04
08:00 18.04
08:10 18.04
08:20 18.04
10:50 18.04
11:30 18.04
12:20 20.04
12:30 20.04
12:50 20.04
13:00 20.04
13:10 20.04
13:20 20.04
13:30 20.04
13:40 20.04
13:50 20.04
14:00 20.04
14:10 20.04
14:20 20.04
14:30 20.04
14:40 20.04
14:50 20.04
15:10 20.04
15:20 20.04
15:40 20.04
15:50 20.04
16:00 20.04
16:10 20.04
16:30 20.04
16:50 20.04
17:00 20.04
17:20 20.04
17:30 20.04
17:40 20.04
Ветер
(напр.,м/с)
Видимость Явления Солнечная радиация
(Вт/м2)
Т
(С)
Тd
(С)
f
(%)
Тe
(С)
Тes
(С)
Комфортность P
(гПа)
Po
(гПа)
Тmin
(С)
Tmax
(С)
R
(мм)
ЮВ 2.3
{4.2}
+12.2 +12.2 100 +11 +11 1022.2 986.6 +12.3 +12.2
ЮВ 2.3
{4.2}
+12.1 +12.1 100 +11 +11 1022.1 986.5 +12.2 +12.1
ЮВ 2.0
{4.0}
+12.0 +12.0 100 +11 +11 1022.0 986.4 +12.1 +12.0
ЮВ 2.5
{4.8}
+12.0 +12.0 100 +10 +10 1021.9 986.3 +12.0 +12.0
ЮВ 2.9
{5.0}
+12.0 +12.0 100 +10 +10 1021.7 986.1 +12.0 +12.0
ЮВ 2.5
{5.0}
+11.8 +11.8 100 +10 +10 1021.8 986.2 +12.0 +11.8
ЮВ 2.2
{4.5}
+11.7 +11.7 100 +10 +10 1021.8 986.2 +11.8 +11.7
ЮВ 2.3
{3.9}
+11.6 +11.6 100 +10 +10 1021.7 986.1 +11.7 +11.6
ЮВ 2.4
{4.3}
+11.6 +11.6 100 +10 +10 1021.7 986.1 +11.6 +11.5
ЮВ 2.3
{4.9}
+11.7 +11.7 100 +10 +10 1021.6 986.0 +11.7 +11.6
ЮВ 2.6
{4.5}
+12.1 +12.1 100 +11 +11 1021.5 985.9 +12.1 +11.7
ЮВ 2.6
{5.0}
+12.1 +12.1 100 +11 +11 1021.4 985.8 +12.2 +12.1
ЮВ 2.6
{4.7}
+12.3 +12.3 100 +11 +11 1021.4 985.8 +12.3 +12.1
ЮВ 3.0
{5.0}
+12.3 +12.3 100 +11 +11 1021.5 985.9 +12.3 +12.3
ЮВ 2.7
{5.4}
+12.4 +12.4 100 +11 +11 1021.4 985.8 +12.4 +12.3
ЮВ 2.7
{4.5}
+12.4 +12.4 100 +11 +11 1021.5 985.9 +12.4 +12.3
ЮВ 3.0
{6.1}
+12.5 +12.5 100 +11 +11 1021.3 985.7 +12.5 +12.4
ЮВ 2.9
{5.7}
+12.4 +12.4 100 +11 +11 1021.3 985.7 +12.5 +12.4
ЮВ 2.9
{4.9}
+12.2 +12.2 100 +10 +10 1021.4 985.8 +12.4 +12.2
ЮВ 2.9
{5.5}
+12.5 +12.5 100 +11 +11 1021.6 986.0 +12.5 +12.2
ЮВ 2.9
{5.3}
+12.7 +12.7 100 +11 +11 1021.7 986.1 +12.7 +12.5
ЮВ 2.9
{5.8}
+12.8 +12.8 100 +11 +11 1021.6 986.0 +12.8 +12.7
ЮВ 3.1
{6.1}
+12.9 +12.9 100 +11 +11 1021.6 986.0 +12.9 +12.8
ЮВ 2.7
{5.3}
+12.9 +12.9 100 +12 +12 1021.7 986.1 +12.9 +12.8
ЮВ 2.8
{5.8}
+13.0 +13.0 100 +12 +12 1021.8 986.2 +13.0 +12.9
ЮВ 2.6
{5.3}
+13.0 +13.0 100 +12 +12 1021.8 986.2 +13.0 +13.0
ЮВ 2.7
{5.3}
+13.1 +13.1 100 +12 +12 1021.8 986.2 +13.1 +13.0
В 2.3
{5.0}
+13.3 +13.3 100 +12 +12 1021.9 986.3 +13.3 +13.1
В 1.4
{4.4}
+13.5 +13.5 100 +13 +13 1021.9 986.3 +13.5 +13.3
В 2.1
{4.8}
+13.7 +13.7 100 +13 +13 1022.1 986.5 +13.7 +13.5
В 1.3
{3.3}
+13.8 +13.8 100 +14 +14 1022.1 986.5 +13.8 +13.7
В 1.9
{4.7}
+14.1 +14.1 100 +14 +14 1022.2 986.6 +14.1 +13.8
В 2.2
{7.3}
+14.3 +14.3 100 +14 +14 1022.3 986.7 +14.3 +14.1
В 1.4
{3.2}
+17.7 +17.7 100 +18 +18 1022.1 986.5 +17.7 +17.0
В 1.2
{3.5}
+18.4 +17.8 96 +20 +20 1022.0 986.4 +18.4 +17.9
СВ 1.5
{4.3}
+21.7 +11.4 52 +24 +24 комфорт 1021.5 985.9 +21.9 +21.3
С 1.1
{2.6}
+24.0 +11.3 45 +25 +25 комфорт 1017.0 981.5 +24.0 +23.7
СЗ 1.8
{4.6}
+23.5 +10.0 42 +25 +25 комфорт 1016.8 981.3 +23.8 +23.6
СЗ 1.3
{3.4}
+23.3 +9.8 42 +25 +25 комфорт 1016.7 981.2 +23.6 +23.5
СЗ 1.8
{4.0}
+23.3 +9.8 42 +25 +25 комфорт 1016.7 981.2 +23.6 +23.3
СЗ 1.7
{3.6}
+23.2 +9.9 43 +25 +25 комфорт 1016.7 981.2 +23.3 +23.2
СЗ 1.7
{3.3}
+23.1 +9.8 43 +25 +25 комфорт 1016.6 981.1 +23.2 +23.1
СЗ 1.4
{2.8}
+23.0 +10.1 44 +25 +25 комфорт 1016.6 981.1 +23.1 +23.0
СЗ 1.3
{3.2}
+23.1 +9.9 43 +25 +25 комфорт 1016.5 981.0 +23.1 +23.0
СЗ 1.3
{3.2}
+23.1 +9.8 43 +25 +25 комфорт 1016.5 981.0 +23.1 +23.0
СЗ 1.6
{3.1}
+22.9 +9.4 42 +24 +24 комфорт 1016.4 980.9 +23.1 +22.9
СЗ 1.2
{2.7}
+22.7 +9.6 43 +24 +24 комфорт 1016.5 981.0 +22.9 +22.7
СЗ 1.4
{3.3}
+22.3 +10.0 45 +24 +24 комфорт 1016.5 981.0 +22.7 +22.4
З 1.1
{2.1}
+22.0 +10.1 47 +24 +24 комфорт 1016.4 980.9 +22.3 +22.0
СЗ 1.5
{3.0}
+21.6 +10.0 48 +23 +23 комфорт 1016.4 980.9 +22.0 +21.6
СЗ 1.6
{2.8}
+21.4 +9.8 48 +23 +23 комфорт 1016.4 980.9 +21.6 +21.4
СЗ 1.4
{2.7}
+20.9 +10.2 51 +24 +24 комфорт 1016.4 980.9 +21.4 +20.9
СЗ 1.1
{2.0}
+20.0 +10.7 55 +22 +22 комфорт 1016.4 980.9 +20.9 +20.0
СЗ 0.8
{1.9}
+19.3 +11.4 60 +22 +22 комфорт 1016.4 980.9 +20.0 +19.3
СЗ 0.5
{1.8}
+18.7 +11.6 63 +21 +21 комфорт 1016.4 980.9 +19.3 +18.7
З 0.4
{1.1}
+18.1 +12.2 68 +20 +20 1016.4 980.9 +18.7 +18.2
ЮЗ 0.8
{1.2}
+17.9 +12.0 68 +19 +19 1016.4 980.9 +18.1 +17.9
ЮЗ 0.7
{1.2}
+17.7 +12.5 72 +19 +19 1016.4 980.9 +17.9 +17.7
ЮЗ 0.7
{1.2}
+17.3 +12.9 75 +19 +19 1016.4 980.9 +17.7 +17.4
ЮЗ 1.7
{3.0}
+16.8 +14.1 84 +17 +17 1016.5 981.0 +17.0 +16.8
ЮЗ 2.0
{2.8}
+16.4 +14.8 90 +16 +16 1016.5 981.0 +16.8 +16.4
ЮЗ 0.9
{2.0}
+16.3 +15.2 93 +17 +17 1016.4 980.9 +16.4 +16.3
Ю 0.8
{1.6}
+16.0 +15.8 99 +17 +17 1016.4 980.9 +16.3 +16.0
Ю 0.8
{1.6}
+15.8 +15.8 100 +17 +17 1016.4 980.9 +16.0 +15.8
ЮВ 0.8
{1.4}
+15.7 +15.7 100 +16 +16 1016.4 980.9 +15.8 +15.7
Ю 0.6
{1.4}
+15.4 +15.4 100 +16 +16 1016.4 980.9 +15.7 +15.4
ЮВ 0.6
{1.3}
+15.1 +15.1 100 +16 +16 1016.4 980.9 +15.4 +15.1
Ю 0.8
{1.4}
+15.2 +15.2 100 +16 +16 1016.3 980.8 +15.3 +15.1
З 0.2
{0.9}
+14.9 +14.9 100 +17 +17 1016.2 980.7 +15.3 +14.9
В 0.4
{1.1}
+14.5 +14.5 100 +16 +16 1016.2 980.7 +14.9 +14.6
Ю 0.8
{1.7}
+14.5 +14.5 100 +15 +15 1016.1 980.6 +14.5 +14.4
ЮВ 0.5
{1.3}
+14.4 +14.4 100 +15 +15 1016.0 980.5 +14.6 +14.4
СВ 0.4
{1.5}
+14.1 +14.1 100 +15 +15 1016.0 980.5 +14.4 +14.1
Ю 0.9
{1.8}
+14.1 +14.1 100 +14 +14 1015.9 980.4 +14.1 +14.0
Ю 0.6
{1.5}
+14.2 +14.2 100 +15 +15 1015.6 980.2 +14.5 +14.2
В 0.2
{0.8}
+13.9 +13.9 100 +16 +16 1015.6 980.2 +14.2 +13.9
ЮВ 0.5
{1.4}
+13.7 +13.7 100 +15 +15 1015.6 980.2 +13.9 +13.6
ЮВ 0.7
{1.7}
+13.7 +13.7 100 +14 +14 1015.5 980.1 +13.7 +13.6
ЮВ 0.5
{1.1}
+13.6 +13.6 100 +14 +14 1015.4 980.0 +13.7 +13.6
В 1.3
{2.2}
+14.1 +14.1 100 +14 +14 1015.1 979.7 +14.1 +13.6
В 0.7
{2.3}
+14.0 +14.0 100 +15 +15 1015.0 979.6 +14.1 +14.0
В 1.7
{3.2}
+14.4 +14.4 100 +14 +14 1015.0 979.6 +14.4 +14.0
ЮВ 2.8
{5.1}
+15.3 +15.3 100 +15 +15 1014.6 979.2 +15.4 +15.3
ЮВ 2.3
{5.0}
+15.2 +15.2 100 +15 +15 1014.5 979.1 +15.4 +15.2
В 2.0
{3.6}
+14.8 +14.8 100 +14 +14 1014.3 978.9 +15.2 +14.8
В 1.9
{3.6}
+14.6 +14.6 100 +14 +14 1014.1 978.7 +14.8 +14.6
ЮВ 1.9
{3.4}
+14.4 +14.4 100 +14 +14 1014.0 978.6 +14.6 +14.4
ЮВ 1.9
{3.2}
+14.1 +14.1 100 +14 +14 1014.0 978.6 +14.4 +14.1
ЮВ 1.8
{3.2}
+13.7 +13.7 100 +13 +13 1013.9 978.5 +14.1 +13.8
ЮВ 1.9
{3.3}
+13.5 +13.5 100 +13 +13 1013.9 978.5 +13.7 +13.5
ЮВ 1.9
{3.5}
+13.4 +13.4 100 +13 +13 1013.8 978.4 +13.5 +13.4
ЮВ 2.2
{4.1}
+13.4 +13.4 100 +12 +12 1013.8 978.4 +13.4 +13.4
ЮВ 1.9
{3.2}
+13.3 +13.3 100 +13 +13 1013.8 978.4 +13.4 +13.3
ЮВ 1.8
{3.2}
+13.2 +13.2 100 +12 +12 1013.8 978.4 +13.3 +13.2
ЮВ 1.8
{3.5}
+12.9 +12.9 100 +12 +12 1013.8 978.4 +13.2 +12.9
ЮВ 1.7
{3.1}
+12.8 +12.8 100 +12 +12 1013.7 978.3 +12.9 +12.8
ЮВ 1.3
{2.6}
+12.8 +12.8 100 +12 +12 1013.6 978.2 +12.8 +12.8
ЮВ 1.1
{2.0}
+12.7 +12.7 100 +12 +12 1013.6 978.2 +12.8 +12.7
ЮВ 1.2
{2.1}
+12.6 +12.6 100 +12 +12 1013.6 978.2 +12.7 +12.6
В 0.6
{1.3}
+11.9 +11.9 100 +12 +12 1013.6 978.2 +12.2 +11.9
ЮВ 1.3
{2.9}
+12.2 +12.2 100 +12 +12 1013.6 978.2 +12.2 +11.9
В 1.7
{3.1}
+12.5 +12.5 100 +12 +12 1013.7 978.3 +12.5 +12.2
ЮВ 1.1
{2.0}
+12.1 +12.1 100 +12 +12 1013.8 978.4 +12.2 +12.1
ЮВ 1.6
{3.3}
+12.4 +12.4 100 +12 +12 1013.8 978.4 +12.4 +12.3
ЮВ 0.8
{2.2}
+12.2 +12.2 100 +12 +12 1013.9 978.5 +12.4 +12.2
ЮВ 1.3
{3.2}
+12.5 +12.5 100 +12 +12 1014.0 978.6 +12.5 +12.2
ЮВ 2.0
{3.5}
+13.1 +13.1 100 +12 +12 1014.0 978.6 +13.1 +12.9
ЮВ 2.0
{3.2}
+13.3 +13.3 100 +12 +12 1014.0 978.6 +13.3 +13.1
В 2.4
{3.5}
+13.5 +13.5 100 +12 +12 1013.9 978.5 +13.5 +13.3
ЮВ 2.1
{3.7}
+14.0 +14.0 100 +13 +13 1013.8 978.4 +14.0 +13.7
ЮВ 2.5
{4.4}
+14.8 +14.8 100 +14 +14 1013.7 978.3 +14.8 +14.3
ЮВ 2.4
{4.5}
+15.3 +15.3 100 +15 +15 1013.7 978.3 +15.3 +14.8
ЮВ 2.6
{4.7}
+15.8 +15.8 100 +15 +15 1013.7 978.3 +15.8 +15.3
ЮВ 2.8
{4.9}
+16.5 +16.5 100 +16 +16 1013.6 978.2 +16.5 +15.8
ЮВ 2.5
{4.5}
+17.1 +16.6 97 +17 +17 1013.6 978.2 +17.2 +16.5
В 2.2
{5.5}
+23.7 +10.8 44 +25 +25 комфорт 1012.3 976.9 +23.6 +22.8
В 2.0
{4.2}
+24.1 +10.0 41 +25 +25 комфорт 1011.6 976.3 +24.4 +23.9
С 1.1
{2.8}
+27.2 +12.1 39 +28 +28 жарко 1008.5 973.3 +27.5 +27.2
СЗ 1.2
{2.6}
+27.2 +10.4 35 +28 +28 жарко 1008.5 973.3 +27.2 +27.1
СЗ 1.3
{4.1}
+27.0 +12.8 41 +29 +29 жарко 1008.5 973.3 +27.3 +27.0
СЗ 1.6
{3.6}
+26.9 +11.2 38 +28 +28 жарко 1008.5 973.3 +27.1 +26.9
СЗ 1.0
{2.3}
+26.7 +11.1 38 +28 +28 жарко 1008.6 973.4 +26.9 +26.7
СЗ 1.4
{2.9}
+26.9 +10.4 35 +27 +27 жарко 1008.6 973.4 +26.9 +26.7
СЗ 1.2
{3.0}
+27.1 +10.8 36 +28 +28 жарко 1008.6 973.4 +27.1 +26.9
СЗ 1.3
{3.0}
+27.1 +10.7 36 +28 +28 жарко 1008.5 973.3 +27.1 +27.0
З 1.4
{3.1}
+27.6 +10.5 34 +28 +28 жарко 1008.5 973.3 +27.3 +27.1
СЗ 1.1
{2.1}
+27.6 +10.5 34 +28 +28 жарко 1008.5 973.3 +27.6 +27.3
С 1.1
{2.4}
+27.9 +12.7 39 +29 +29 жарко 1008.4 973.2 +27.9 +27.6
С 1.2
{3.0}
+28.3 +9.6 31 +28 +28 жарко 1008.3 973.1 +28.3 +27.9
СЗ 1.0
{2.3}
+28.4 +10.4 32 +29 +29 жарко 1008.3 973.1 +28.5 +28.3
СЗ 1.4
{3.4}
+28.0 +9.5 31 +28 +28 жарко 1008.2 973.0 +28.4 +28.0
СЗ 0.9
{2.2}
+28.1 +9.9 32 +28 +28 жарко 1008.2 973.0 +28.3 +28.0
СЗ 1.3
{3.3}
+27.9 +11.2 35 +29 +29 жарко 1008.1 972.9 +28.1 +27.9
СЗ 1.5
{2.9}
+27.6 +11.6 37 +29 +29 жарко 1008.1 972.9 +27.9 +27.6
СЗ 1.3
{2.5}
+27.5 +11.4 37 +28 +28 жарко 1008.1 972.9 +27.5 +27.4
СЗ 1.1
{2.8}
+27.5 +11.0 36 +28 +28 жарко 1008.2 973.0 +27.6 +27.5
СЗ 1.3
{3.8}
+27.6 +9.8 33 +28 +28 жарко 1008.2 973.0 +27.6 +27.4
С 1.2
{3.1}
+27.3 +10.6 35 +28 +28 жарко 1008.3 973.1 +27.6 +27.3
С 1.2
{2.8}
+27.1 +9.1 32 +27 +27 жарко 1008.3 973.1 +27.3 +27.1
СЗ 1.1
{3.4}
+26.9 +11.8 39 +28 +28 жарко 1008.4 973.2 +27.1 +26.9
СЗ 1.2
{3.0}
+26.9 +10.8 36 +28 +28 жарко 1008.4 973.2 +26.9 +26.8
СЗ 1.1
{2.5}
+26.6 +10.5 36 +27 +27 жарко 1008.5 973.3 +26.7 +26.6
СЗ 0.9
{2.5}
+26.4 +9.7 35 +27 +27 жарко 1008.5 973.3 +26.6 +26.4
СЗ 0.8
{2.2}
+26.2 +10.0 36 +27 +27 жарко 1008.6 973.4 +26.4 +26.2
Местоположение метеостанции Бекабад (Ташкентская область, Узбекистан): широта 40.21 долгота 69.26 высота над уровнем моря 0 м.
В архиве по умолчанию представлена погода в Бекабаде за последние 1-2 суток. Обновление информации о фактической погоде в базе происходит ежечасно! Архивные данные за месяц целиком и за предыдущие месяцы Вы можете получить, выбрав интересующий диапазон дат из раскрывающегося списка и нажав кнопку "Ввод!".
*Определитесь, кто Вы:
Внимание! Время в таблицах - местное (без учета летнего времени). Для получения всемирного времени необходимо вычесть поправку, которая равна 5 ч.
Смотрите также архив погоды на ближайших метеорологических станциях:
Партнеры нашего сайта:      
Пояснения к столбцам:
  • Ветер - указаны скорость ветра в м/с - средняя за 10 мин, порывы в срок и между сроками (в фигурных скобках) и направление, откуда дует ветер: С - северный,
  • СВ - северо-восточный, В - восточный, ЮВ - юго-восточный, Ю - южный, ЮЗ - юго-западный, З - западный, СЗ - северо-западный.
  • Видимость - горизонтальная дальность видимости в метрах или километрах. При видимости от 1 до 10 км при отсутствии осадков обычно наблюдается дымка, при ухудшении видимости до 1 км и менее - туман. В сухую погоду видимость может ухудшаться дымом, пылью или мглою.
  • Явления - указаны атмосферные явления, наблюдавшиеся в срок или в последний час перед сроком.
  • Солнечная радиация - мощность потока солнечного излучения на поверхность земли и предметов в Вт/м2.
  • T - Температура воздуха - температура, измеренная на высоте 2 м над землей.
  • Td - Температура точки росы - температура, при понижении до которой содержащийся в воздухе водяной пар достигнет насыщения.
  • f - Относительная влажность воздуха - влажноcть воздуха, измеренная на высоте 2 м над землей.
  • Te - Эффективная температура - температура, которую ощущает одетый по сезону человек в тени. Характеристика душности погоды. При расчете учитывается влияние влажности воздуха и скорости ветра на теплоощущения человека.
  • Tes - Эффективная температура на солнце - температура, которую ощущает человек, с поправкой на солнечный нагрев. Характеристика знойности погоды. Зависит от высоты солнца над горизонтом, облачности и скорости ветра. Ночью, в пасмурную погоду, а также при ветре 12 м/с и более поправка равна нулю.
  • P - Атмосферное давление - приведенное к уровню моря атмосферное давление.
  • Po - Атмосферное давление - измеренное на уровне метеостанции атмосферное давление.
  • Tmin - Минимальная температура - минимум температуры воздуха на высоте 2 м над землей.
  • Tmax - Максимальная температура - максимум температуры воздуха на высоте 2 м над землей.
  • R - Количество осадков - Количество выпавших осадков за период времени, мм. При наведении курсора мыши на число - период времени, за который выпало указанное количество осадков.